Year,Month,Day,Hour,Minute,Value (Times are PST for windgust in km/hr)
2010,08,29,00,06,1.60
2010,08,29,00,08,1.60
2010,08,29,00,09,3.20
2010,08,29,00,10,3.20
2010,08,29,00,11,3.20
2010,08,29,00,12,4.80
2010,08,29,00,13,4.80
2010,08,29,00,14,3.20
2010,08,29,00,15,3.20
2010,08,29,00,16,3.20
2010,08,29,00,17,3.20
2010,08,29,00,18,3.20
2010,08,29,00,19,3.20
2010,08,29,00,20,1.60
2010,08,29,00,21,1.60
2010,08,29,00,22,3.20
2010,08,29,00,23,4.80
2010,08,29,00,24,4.80
2010,08,29,00,25,4.80
2010,08,29,00,26,4.80
2010,08,29,00,27,4.80
2010,08,29,00,28,4.80
2010,08,29,00,29,3.20
2010,08,29,00,30,3.20
2010,08,29,00,31,1.60
2010,08,29,00,34,3.20
2010,08,29,00,35,3.20
2010,08,29,00,36,4.80
2010,08,29,00,37,4.80
2010,08,29,00,38,4.80
2010,08,29,00,39,3.20
2010,08,29,00,40,1.60
2010,08,29,00,54,1.60
2010,08,29,01,07,1.60
2010,08,29,01,52,1.60
2010,08,29,01,55,1.60
2010,08,29,01,57,1.60
2010,08,29,01,58,3.20
2010,08,29,01,59,4.80
2010,08,29,02,00,4.80
2010,08,29,02,01,4.80
2010,08,29,02,02,4.80
2010,08,29,02,03,4.80
2010,08,29,02,04,4.80
2010,08,29,02,05,6.40
2010,08,29,02,06,6.40
2010,08,29,02,07,6.40
2010,08,29,02,08,6.40
2010,08,29,02,09,6.40
2010,08,29,02,10,6.40
2010,08,29,02,11,4.80
2010,08,29,02,12,4.80
2010,08,29,02,13,4.80
2010,08,29,02,14,4.80
2010,08,29,02,15,4.80
2010,08,29,02,16,4.80
2010,08,29,02,17,4.80
2010,08,29,02,18,4.80
2010,08,29,02,19,4.80
2010,08,29,02,20,4.80
2010,08,29,02,21,6.40
2010,08,29,02,22,6.40
2010,08,29,02,23,4.80
2010,08,29,02,24,4.80
2010,08,29,02,25,4.80
2010,08,29,02,26,6.40
2010,08,29,02,27,6.40
2010,08,29,02,28,8.10
2010,08,29,02,29,6.40
2010,08,29,02,30,8.10
2010,08,29,02,31,6.40
2010,08,29,02,32,6.40
2010,08,29,02,33,6.40
2010,08,29,02,34,6.40
2010,08,29,02,35,6.40
2010,08,29,02,36,6.40
2010,08,29,02,37,4.80
2010,08,29,02,38,6.40
2010,08,29,02,39,6.40
2010,08,29,02,40,6.40
2010,08,29,02,41,6.40
2010,08,29,02,42,6.40
2010,08,29,02,43,6.40
2010,08,29,02,44,6.40
2010,08,29,02,45,8.10
2010,08,29,02,46,6.40
2010,08,29,02,47,8.10
2010,08,29,02,48,4.80
2010,08,29,02,49,8.10
2010,08,29,02,50,8.10
2010,08,29,02,51,8.10
2010,08,29,02,52,8.10
2010,08,29,02,53,8.10
2010,08,29,02,54,9.60
2010,08,29,02,55,9.60
2010,08,29,02,56,9.60
2010,08,29,02,57,9.60
2010,08,29,02,58,11.30
2010,08,29,02,59,8.10
2010,08,29,03,00,8.10
2010,08,29,03,01,8.10
2010,08,29,03,02,8.10
2010,08,29,03,03,8.10
2010,08,29,03,04,8.10
2010,08,29,03,05,8.10
2010,08,29,03,06,9.60
2010,08,29,03,07,9.60
2010,08,29,03,08,8.10
2010,08,29,03,09,9.60
2010,08,29,03,10,8.10
2010,08,29,03,11,8.10
2010,08,29,03,12,8.10
2010,08,29,03,13,9.60
2010,08,29,03,14,8.10
2010,08,29,03,15,8.10
2010,08,29,03,16,6.40
2010,08,29,03,17,6.40
2010,08,29,03,18,6.40
2010,08,29,03,19,6.40
2010,08,29,03,20,6.40
2010,08,29,03,21,4.80
2010,08,29,03,22,4.80
2010,08,29,03,23,3.20
2010,08,29,03,24,3.20
2010,08,29,03,25,1.60
2010,08,29,03,26,3.20
2010,08,29,03,27,3.20
2010,08,29,03,28,3.20
2010,08,29,03,29,3.20
2010,08,29,03,30,4.80
2010,08,29,03,31,4.80
2010,08,29,03,32,4.80
2010,08,29,03,33,6.40
2010,08,29,03,34,4.80
2010,08,29,03,35,4.80
2010,08,29,03,36,4.80
2010,08,29,03,37,3.20
2010,08,29,03,38,4.80
2010,08,29,03,39,4.80
2010,08,29,03,40,4.80
2010,08,29,03,41,4.80
2010,08,29,03,42,4.80
2010,08,29,03,43,4.80
2010,08,29,03,44,4.80
2010,08,29,03,45,4.80
2010,08,29,03,46,4.80
2010,08,29,03,47,4.80
2010,08,29,03,48,3.20
2010,08,29,03,50,1.60
2010,08,29,03,51,1.60
2010,08,29,03,55,1.60
2010,08,29,03,56,1.60
2010,08,29,03,57,1.60
2010,08,29,04,16,1.60
2010,08,29,04,19,3.20
2010,08,29,04,22,1.60
2010,08,29,04,24,1.60
2010,08,29,04,29,1.60
2010,08,29,04,30,1.60
2010,08,29,04,31,1.60
2010,08,29,04,32,1.60
2010,08,29,04,40,1.60
2010,08,29,04,41,1.60
2010,08,29,04,42,3.20
2010,08,29,04,45,3.20
2010,08,29,04,46,3.20
2010,08,29,04,47,1.60
2010,08,29,04,48,3.20
2010,08,29,04,49,3.20
2010,08,29,04,50,3.20
2010,08,29,04,51,3.20
2010,08,29,04,52,4.80
2010,08,29,04,53,3.20
2010,08,29,04,54,4.80
2010,08,29,04,55,3.20
2010,08,29,04,56,3.20
2010,08,29,04,57,1.60
2010,08,29,04,58,3.20
2010,08,29,04,59,4.80
2010,08,29,05,00,3.20
2010,08,29,05,01,3.20
2010,08,29,05,02,1.60
2010,08,29,05,21,1.60
2010,08,29,05,24,1.60
2010,08,29,05,25,3.20
2010,08,29,05,26,3.20
2010,08,29,05,27,4.80
2010,08,29,05,28,1.60
2010,08,29,05,29,1.60
2010,08,29,05,30,3.20
2010,08,29,05,31,4.80
2010,08,29,05,32,4.80
2010,08,29,05,33,6.40
2010,08,29,05,34,6.40
2010,08,29,05,35,8.10
2010,08,29,05,36,6.40
2010,08,29,05,37,6.40
2010,08,29,05,38,4.80
2010,08,29,05,39,4.80
2010,08,29,05,40,4.80
2010,08,29,05,41,4.80
2010,08,29,05,42,3.20
2010,08,29,05,43,3.20
2010,08,29,05,44,3.20
2010,08,29,05,45,1.60
2010,08,29,05,46,3.20
2010,08,29,05,57,3.20
2010,08,29,05,58,3.20
2010,08,29,05,59,4.80
2010,08,29,06,00,3.20
2010,08,29,06,01,3.20
2010,08,29,06,02,1.60
2010,08,29,06,03,3.20
2010,08,29,06,04,3.20
2010,08,29,06,05,4.80
2010,08,29,06,06,4.80
2010,08,29,06,07,4.80
2010,08,29,06,08,3.20
2010,08,29,06,09,3.20
2010,08,29,06,10,4.80
2010,08,29,06,11,3.20
2010,08,29,06,12,3.20
2010,08,29,06,13,3.20
2010,08,29,06,14,3.20
2010,08,29,06,15,1.60
2010,08,29,06,16,1.60
2010,08,29,06,18,1.60
2010,08,29,06,19,3.20
2010,08,29,06,20,3.20
2010,08,29,06,21,3.20
2010,08,29,06,22,3.20
2010,08,29,06,23,3.20
2010,08,29,06,24,4.80
2010,08,29,06,25,4.80
2010,08,29,06,26,4.80
2010,08,29,06,27,4.80
2010,08,29,06,28,4.80
2010,08,29,06,29,3.20
2010,08,29,06,30,4.80
2010,08,29,06,31,4.80
2010,08,29,06,32,3.20
2010,08,29,06,33,1.60
2010,08,29,06,39,1.60
2010,08,29,06,40,3.20
2010,08,29,06,41,3.20
2010,08,29,06,42,3.20
2010,08,29,06,43,1.60
2010,08,29,06,44,3.20
2010,08,29,06,45,3.20
2010,08,29,06,46,1.60
2010,08,29,06,47,1.60
2010,08,29,06,48,1.60
2010,08,29,06,49,3.20
2010,08,29,06,50,1.60
2010,08,29,06,51,3.20
2010,08,29,06,52,3.20
2010,08,29,06,53,6.40
2010,08,29,06,54,6.40
2010,08,29,06,55,6.40
2010,08,29,06,56,6.40
2010,08,29,06,57,6.40
2010,08,29,06,58,4.80
2010,08,29,06,59,4.80
2010,08,29,07,00,6.40
2010,08,29,07,01,6.40
2010,08,29,07,02,9.60
2010,08,29,07,03,6.40
2010,08,29,07,04,6.40
2010,08,29,07,05,8.10
2010,08,29,07,06,8.10
2010,08,29,07,07,6.40
2010,08,29,07,08,6.40
2010,08,29,07,09,6.40
2010,08,29,07,10,6.40
2010,08,29,07,11,6.40
2010,08,29,07,12,6.40
2010,08,29,07,13,8.10
2010,08,29,07,14,4.80
2010,08,29,07,15,6.40
2010,08,29,07,16,6.40
2010,08,29,07,17,6.40
2010,08,29,07,18,6.40
2010,08,29,07,19,6.40
2010,08,29,07,20,4.80
2010,08,29,07,21,6.40
2010,08,29,07,22,4.80
2010,08,29,07,23,6.40
2010,08,29,07,24,4.80
2010,08,29,07,25,3.20
2010,08,29,07,26,4.80
2010,08,29,07,27,6.40
2010,08,29,07,28,6.40
2010,08,29,07,29,4.80
2010,08,29,07,30,4.80
2010,08,29,07,31,6.40
2010,08,29,07,32,6.40
2010,08,29,07,33,8.10
2010,08,29,07,34,6.40
2010,08,29,07,35,4.80
2010,08,29,07,36,4.80
2010,08,29,07,37,4.80
2010,08,29,07,38,6.40
2010,08,29,07,39,6.40
2010,08,29,07,40,4.80
2010,08,29,07,41,4.80
2010,08,29,07,42,4.80
2010,08,29,07,43,4.80
2010,08,29,07,44,4.80
2010,08,29,07,45,6.40
2010,08,29,07,46,4.80
2010,08,29,07,47,4.80
2010,08,29,07,48,6.40
2010,08,29,07,49,6.40
2010,08,29,07,50,4.80
2010,08,29,07,51,3.20
2010,08,29,07,52,4.80
2010,08,29,07,53,6.40
2010,08,29,07,54,3.20
2010,08,29,07,55,3.20
2010,08,29,07,56,3.20
2010,08,29,07,57,4.80
2010,08,29,07,58,4.80
2010,08,29,07,59,4.80
2010,08,29,08,00,1.60
2010,08,29,08,01,3.20
2010,08,29,08,02,1.60
2010,08,29,08,03,4.80
2010,08,29,08,04,3.20
2010,08,29,08,05,3.20
2010,08,29,08,06,4.80
2010,08,29,08,07,4.80
2010,08,29,08,08,4.80
2010,08,29,08,09,4.80
2010,08,29,08,10,3.20
2010,08,29,08,11,3.20
2010,08,29,08,12,1.60
2010,08,29,08,13,1.60
2010,08,29,08,21,1.60
2010,08,29,08,22,3.20
2010,08,29,08,23,3.20
2010,08,29,08,24,3.20
2010,08,29,08,25,3.20
2010,08,29,08,31,4.80
2010,08,29,08,32,4.80
2010,08,29,08,33,3.20
2010,08,29,08,34,4.80
2010,08,29,08,35,4.80
2010,08,29,08,36,4.80
2010,08,29,08,37,4.80
2010,08,29,08,38,4.80
2010,08,29,08,39,4.80
2010,08,29,08,40,3.20
2010,08,29,08,41,3.20
2010,08,29,08,42,4.80
2010,08,29,08,43,3.20
2010,08,29,08,44,4.80
2010,08,29,08,45,4.80
2010,08,29,08,46,4.80
2010,08,29,08,47,4.80
2010,08,29,08,48,3.20
2010,08,29,08,49,1.60
2010,08,29,08,50,6.40
2010,08,29,08,51,4.80
2010,08,29,08,52,4.80
2010,08,29,08,53,4.80
2010,08,29,08,54,6.40
2010,08,29,08,55,6.40
2010,08,29,08,56,6.40
2010,08,29,08,57,4.80
2010,08,29,08,58,4.80
2010,08,29,08,59,6.40
2010,08,29,09,00,6.40
2010,08,29,09,01,6.40
2010,08,29,09,02,8.10
2010,08,29,09,03,4.80
2010,08,29,09,04,6.40
2010,08,29,09,05,6.40
2010,08,29,09,06,4.80
2010,08,29,09,07,4.80
2010,08,29,09,08,4.80
2010,08,29,09,09,4.80
2010,08,29,09,10,6.40
2010,08,29,09,11,6.40
2010,08,29,09,12,6.40
2010,08,29,09,13,6.40
2010,08,29,09,14,4.80
2010,08,29,09,15,6.40
2010,08,29,09,16,6.40
2010,08,29,09,17,6.40
2010,08,29,09,18,4.80
2010,08,29,09,19,4.80
2010,08,29,09,20,6.40
2010,08,29,09,21,4.80
2010,08,29,09,22,4.80
2010,08,29,09,23,4.80
2010,08,29,09,24,6.40
2010,08,29,09,25,6.40
2010,08,29,09,26,4.80
2010,08,29,09,27,6.40
2010,08,29,09,28,6.40
2010,08,29,09,29,6.40
2010,08,29,09,30,6.40
2010,08,29,09,31,6.40
2010,08,29,09,32,4.80
2010,08,29,09,33,6.40
2010,08,29,09,34,6.40
2010,08,29,09,35,6.40
2010,08,29,09,36,6.40
2010,08,29,09,37,6.40
2010,08,29,09,38,6.40
2010,08,29,09,39,6.40
2010,08,29,09,40,4.80
2010,08,29,09,41,4.80
2010,08,29,09,42,6.40
2010,08,29,09,43,8.10
2010,08,29,09,44,9.60
2010,08,29,09,45,8.10
2010,08,29,09,46,6.40
2010,08,29,09,47,6.40
2010,08,29,09,48,8.10
2010,08,29,09,49,8.10
2010,08,29,09,50,6.40
2010,08,29,09,51,8.10
2010,08,29,09,52,9.60
2010,08,29,09,53,8.10
2010,08,29,09,54,6.40
2010,08,29,09,55,9.60
2010,08,29,09,56,8.10
2010,08,29,09,57,9.60
2010,08,29,09,58,8.10
2010,08,29,09,59,4.80
2010,08,29,10,00,4.80
2010,08,29,10,01,4.80
2010,08,29,10,02,8.10
2010,08,29,10,03,9.60
2010,08,29,10,04,9.60
2010,08,29,10,05,9.60
2010,08,29,10,06,8.10
2010,08,29,10,07,9.60
2010,08,29,10,08,6.40
2010,08,29,10,09,11.30
2010,08,29,10,10,8.10
2010,08,29,10,11,9.60
2010,08,29,10,12,8.10
2010,08,29,10,13,11.30
2010,08,29,10,14,11.30
2010,08,29,10,15,14.50
2010,08,29,10,16,9.60
2010,08,29,10,17,9.60
2010,08,29,10,18,14.50
2010,08,29,10,19,9.60
2010,08,29,10,20,14.50
2010,08,29,10,21,17.70
2010,08,29,10,22,11.30
2010,08,29,10,23,12.90
2010,08,29,10,24,14.50
2010,08,29,10,25,14.50
2010,08,29,10,26,11.30
2010,08,29,10,27,19.30
2010,08,29,10,28,14.50
2010,08,29,10,29,11.30
2010,08,29,10,30,16.10
2010,08,29,10,31,17.70
2010,08,29,10,32,14.50
2010,08,29,10,33,9.60
2010,08,29,10,34,9.60
2010,08,29,10,35,11.30
2010,08,29,10,36,19.30
2010,08,29,10,37,20.90
2010,08,29,10,38,19.30
2010,08,29,10,39,17.70
2010,08,29,10,40,17.70
2010,08,29,10,41,16.10
2010,08,29,10,42,16.10
2010,08,29,10,43,20.90
2010,08,29,10,44,14.50
2010,08,29,10,45,17.70
2010,08,29,10,46,16.10
2010,08,29,10,47,16.10
2010,08,29,10,48,14.50
2010,08,29,10,49,16.10
2010,08,29,10,50,17.70
2010,08,29,10,51,17.70
2010,08,29,10,52,12.90
2010,08,29,10,53,16.10
2010,08,29,10,54,14.50
2010,08,29,10,55,9.60
2010,08,29,10,56,17.70
2010,08,29,10,57,17.70
2010,08,29,10,58,16.10
2010,08,29,10,59,14.50
2010,08,29,11,00,17.70
2010,08,29,11,01,11.30
2010,08,29,11,02,16.10
2010,08,29,11,03,16.10
2010,08,29,11,04,14.50
2010,08,29,11,05,16.10
2010,08,29,11,06,14.50
2010,08,29,11,07,9.60
2010,08,29,11,08,14.50
2010,08,29,11,09,11.30
2010,08,29,11,10,16.10
2010,08,29,11,11,11.30
2010,08,29,11,12,11.30
2010,08,29,11,13,11.30
2010,08,29,11,14,8.10
2010,08,29,11,15,11.30
2010,08,29,11,16,11.30
2010,08,29,11,17,14.50
2010,08,29,11,18,11.30
2010,08,29,11,19,9.60
2010,08,29,11,20,14.50
2010,08,29,11,21,9.60
2010,08,29,11,22,11.30
2010,08,29,11,23,16.10
2010,08,29,11,24,14.50
2010,08,29,11,25,16.10
2010,08,29,11,26,14.50
2010,08,29,11,27,14.50
2010,08,29,11,28,14.50
2010,08,29,11,29,16.10
2010,08,29,11,30,14.50
2010,08,29,11,31,14.50
2010,08,29,11,32,14.50
2010,08,29,11,33,16.10
2010,08,29,11,34,11.30
2010,08,29,11,35,6.40
2010,08,29,11,36,6.40
2010,08,29,11,37,9.60
2010,08,29,11,38,8.10
2010,08,29,11,39,11.30
2010,08,29,11,40,12.90
2010,08,29,11,41,9.60
2010,08,29,11,42,8.10
2010,08,29,11,43,4.80
2010,08,29,11,44,4.80
2010,08,29,11,45,6.40
2010,08,29,11,46,11.30
2010,08,29,11,47,9.60
2010,08,29,11,48,9.60
2010,08,29,11,49,11.30
2010,08,29,11,50,11.30
2010,08,29,11,51,9.60
2010,08,29,11,52,8.10
2010,08,29,11,53,8.10
2010,08,29,11,54,8.10
2010,08,29,11,55,8.10
2010,08,29,11,56,6.40
2010,08,29,11,57,11.30
2010,08,29,11,58,11.30
2010,08,29,11,59,9.60
2010,08,29,12,00,8.10
2010,08,29,12,01,12.90
2010,08,29,12,02,6.40
2010,08,29,12,03,3.20
2010,08,29,12,04,8.10
2010,08,29,12,05,9.60
2010,08,29,12,06,11.30
2010,08,29,12,07,8.10
2010,08,29,12,08,8.10
2010,08,29,12,09,8.10
2010,08,29,12,10,8.10
2010,08,29,12,11,6.40
2010,08,29,12,12,8.10
2010,08,29,12,13,6.40
2010,08,29,12,14,8.10
2010,08,29,12,15,9.60
2010,08,29,12,16,9.60
2010,08,29,12,17,8.10
2010,08,29,12,18,6.40
2010,08,29,12,19,9.60
2010,08,29,12,20,8.10
2010,08,29,12,21,8.10
2010,08,29,12,22,11.30
2010,08,29,12,23,14.50
2010,08,29,12,24,9.60
2010,08,29,12,25,11.30
2010,08,29,12,26,9.60
2010,08,29,12,27,14.50
2010,08,29,12,28,9.60
2010,08,29,12,29,6.40
2010,08,29,12,30,8.10
2010,08,29,12,31,8.10
2010,08,29,12,32,9.60
2010,08,29,12,33,8.10
2010,08,29,12,34,8.10
2010,08,29,12,35,11.30
2010,08,29,12,36,16.10
2010,08,29,12,37,9.60
2010,08,29,12,38,14.50
2010,08,29,12,39,11.30
2010,08,29,12,40,14.50
2010,08,29,12,41,14.50
2010,08,29,12,42,9.60
2010,08,29,12,43,9.60
2010,08,29,12,44,11.30
2010,08,29,12,45,6.40
2010,08,29,12,46,6.40
2010,08,29,12,47,8.10
2010,08,29,12,48,20.90
2010,08,29,12,49,16.10
2010,08,29,12,50,12.90
2010,08,29,12,51,14.50
2010,08,29,12,52,11.30
2010,08,29,12,53,17.70
2010,08,29,12,54,14.50
2010,08,29,12,55,9.60
2010,08,29,12,56,9.60
2010,08,29,12,57,12.90
2010,08,29,12,58,17.70
2010,08,29,12,59,20.90
2010,08,29,13,00,20.90
2010,08,29,13,01,16.10
2010,08,29,13,02,16.10
2010,08,29,13,03,14.50
2010,08,29,13,04,16.10
2010,08,29,13,05,8.10
2010,08,29,13,06,12.90
2010,08,29,13,07,11.30
2010,08,29,13,08,6.40
2010,08,29,13,09,19.30
2010,08,29,13,10,20.90
2010,08,29,13,11,25.70
2010,08,29,13,12,24.20
2010,08,29,13,13,19.30
2010,08,29,13,14,19.30
2010,08,29,13,15,17.70
2010,08,29,13,16,16.10
2010,08,29,13,17,6.40
2010,08,29,13,18,9.60
2010,08,29,13,19,19.30
2010,08,29,13,20,24.20
2010,08,29,13,21,14.50
2010,08,29,13,22,19.30
2010,08,29,13,23,25.70
2010,08,29,13,24,19.30
2010,08,29,13,25,22.50
2010,08,29,13,26,24.20
2010,08,29,13,27,25.70
2010,08,29,13,28,22.50
2010,08,29,13,29,20.90
2010,08,29,13,30,17.70
2010,08,29,13,31,16.10
2010,08,29,13,32,19.30
2010,08,29,13,33,22.50
2010,08,29,13,34,20.90
2010,08,29,13,35,22.50
2010,08,29,13,36,17.70
2010,08,29,13,37,19.30
2010,08,29,13,38,17.70
2010,08,29,13,39,17.70
2010,08,29,13,40,22.50
2010,08,29,13,41,14.50
2010,08,29,13,42,20.90
2010,08,29,13,43,19.30
2010,08,29,13,44,14.50
2010,08,29,13,45,17.70
2010,08,29,13,46,17.70
2010,08,29,13,47,20.90
2010,08,29,13,48,22.50
2010,08,29,13,49,25.70
2010,08,29,13,50,19.30
2010,08,29,13,51,24.20
2010,08,29,13,52,20.90
2010,08,29,13,53,20.90
2010,08,29,13,54,19.30
2010,08,29,13,55,19.30
2010,08,29,13,56,17.70
2010,08,29,13,57,27.40
2010,08,29,13,58,20.90
2010,08,29,13,59,16.10
2010,08,29,14,00,11.30
2010,08,29,14,01,20.90
2010,08,29,14,02,19.30
2010,08,29,14,03,19.30
2010,08,29,14,04,11.30
2010,08,29,14,05,19.30
2010,08,29,14,06,12.90
2010,08,29,14,07,22.50
2010,08,29,14,08,20.90
2010,08,29,14,09,20.90
2010,08,29,14,10,19.30
2010,08,29,14,11,19.30
2010,08,29,14,12,20.90
2010,08,29,14,13,22.50
2010,08,29,14,14,17.70
2010,08,29,14,15,24.20
2010,08,29,14,16,16.10
2010,08,29,14,17,20.90
2010,08,29,14,18,22.50
2010,08,29,14,19,20.90
2010,08,29,14,20,20.90
2010,08,29,14,21,17.70
2010,08,29,14,22,16.10
2010,08,29,14,23,19.30
2010,08,29,14,24,11.30
2010,08,29,14,25,16.10
2010,08,29,14,26,16.10
2010,08,29,14,27,14.50
2010,08,29,14,28,19.30
2010,08,29,14,29,22.50
2010,08,29,14,30,17.70
2010,08,29,14,31,17.70
2010,08,29,14,32,20.90
2010,08,29,14,33,20.90
2010,08,29,14,34,22.50
2010,08,29,14,35,19.30
2010,08,29,14,36,22.50
2010,08,29,14,37,19.30
2010,08,29,14,38,19.30
2010,08,29,14,39,17.70
2010,08,29,14,40,16.10
2010,08,29,14,41,20.90
2010,08,29,14,42,20.90
2010,08,29,14,43,16.10
2010,08,29,14,44,17.70
2010,08,29,14,45,20.90
2010,08,29,14,46,27.40
2010,08,29,14,47,12.90
2010,08,29,14,48,24.20
2010,08,29,14,49,25.70
2010,08,29,14,50,19.30
2010,08,29,14,51,25.70
2010,08,29,14,52,25.70
2010,08,29,14,53,17.70
2010,08,29,14,54,19.30
2010,08,29,14,55,16.10
2010,08,29,14,56,17.70
2010,08,29,14,57,14.50
2010,08,29,14,58,20.90
2010,08,29,14,59,20.90
2010,08,29,15,00,24.20
2010,08,29,15,01,20.90
2010,08,29,15,02,20.90
2010,08,29,15,03,25.70
2010,08,29,15,04,17.70
2010,08,29,15,05,17.70
2010,08,29,15,06,20.90
2010,08,29,15,07,19.30
2010,08,29,15,08,22.50
2010,08,29,15,09,22.50
2010,08,29,15,10,24.20
2010,08,29,15,11,17.70
2010,08,29,15,12,22.50
2010,08,29,15,13,22.50
2010,08,29,15,14,24.20
2010,08,29,15,15,25.70
2010,08,29,15,16,20.90
2010,08,29,15,17,20.90
2010,08,29,15,18,22.50
2010,08,29,15,19,22.50
2010,08,29,15,20,19.30
2010,08,29,15,21,19.30
2010,08,29,15,22,16.10
2010,08,29,15,23,22.50
2010,08,29,15,24,24.20
2010,08,29,15,25,17.70
2010,08,29,15,26,20.90
2010,08,29,15,27,14.50
2010,08,29,15,28,16.10
2010,08,29,15,29,16.10
2010,08,29,15,30,22.50
2010,08,29,15,31,9.60
2010,08,29,15,32,8.10
2010,08,29,15,33,19.30
2010,08,29,15,34,14.50
2010,08,29,15,35,17.70
2010,08,29,15,36,22.50
2010,08,29,15,37,8.10
2010,08,29,15,38,19.30
2010,08,29,15,39,25.70
2010,08,29,15,40,20.90
2010,08,29,15,41,19.30
2010,08,29,15,42,20.90
2010,08,29,15,43,17.70
2010,08,29,15,44,11.30
2010,08,29,15,45,11.30
2010,08,29,15,46,19.30
2010,08,29,15,47,17.70
2010,08,29,15,48,25.70
2010,08,29,15,49,22.50
2010,08,29,15,50,24.20
2010,08,29,15,51,16.10
2010,08,29,15,52,20.90
2010,08,29,15,53,22.50
2010,08,29,15,54,17.70
2010,08,29,15,55,16.10
2010,08,29,15,56,19.30
2010,08,29,15,57,19.30
2010,08,29,15,58,9.60
2010,08,29,15,59,16.10
2010,08,29,16,00,11.30
2010,08,29,16,01,16.10
2010,08,29,16,02,14.50
2010,08,29,16,03,8.10
2010,08,29,16,04,19.30
2010,08,29,16,05,22.50
2010,08,29,16,06,16.10
2010,08,29,16,07,19.30
2010,08,29,16,08,17.70
2010,08,29,16,09,19.30
2010,08,29,16,10,17.70
2010,08,29,16,11,22.50
2010,08,29,16,12,20.90
2010,08,29,16,13,17.70
2010,08,29,16,14,20.90
2010,08,29,16,15,16.10
2010,08,29,16,16,8.10
2010,08,29,16,17,20.90
2010,08,29,16,18,14.50
2010,08,29,16,19,9.60
2010,08,29,16,20,11.30
2010,08,29,16,21,20.90
2010,08,29,16,22,17.70
2010,08,29,16,23,20.90
2010,08,29,16,24,20.90
2010,08,29,16,25,12.90
2010,08,29,16,26,17.70
2010,08,29,16,27,19.30
2010,08,29,16,28,16.10
2010,08,29,16,29,14.50
2010,08,29,16,30,17.70
2010,08,29,16,31,11.30
2010,08,29,16,32,25.70
2010,08,29,16,33,16.10
2010,08,29,16,34,17.70
2010,08,29,16,35,19.30
2010,08,29,16,36,14.50
2010,08,29,16,37,14.50
2010,08,29,16,38,11.30
2010,08,29,16,39,17.70
2010,08,29,16,40,9.60
2010,08,29,16,41,25.70
2010,08,29,16,42,20.90
2010,08,29,16,43,22.50
2010,08,29,16,44,22.50
2010,08,29,16,45,16.10
2010,08,29,16,46,20.90
2010,08,29,16,47,17.70
2010,08,29,16,48,20.90
2010,08,29,16,49,17.70
2010,08,29,16,50,24.20
2010,08,29,16,51,25.70
2010,08,29,16,52,20.90
2010,08,29,16,53,16.10
2010,08,29,16,54,11.30
2010,08,29,16,55,20.90
2010,08,29,16,56,17.70
2010,08,29,16,57,24.20
2010,08,29,16,58,25.70
2010,08,29,16,59,19.30
2010,08,29,17,00,25.70
2010,08,29,17,01,22.50
2010,08,29,17,02,14.50
2010,08,29,17,03,14.50
2010,08,29,17,04,22.50
2010,08,29,17,05,22.50
2010,08,29,17,06,19.30
2010,08,29,17,07,16.10
2010,08,29,17,08,20.90
2010,08,29,17,09,19.30
2010,08,29,17,10,24.20
2010,08,29,17,11,17.70
2010,08,29,17,12,19.30
2010,08,29,17,13,22.50
2010,08,29,17,14,17.70
2010,08,29,17,15,16.10
2010,08,29,17,16,14.50
2010,08,29,17,17,22.50
2010,08,29,17,18,20.90
2010,08,29,17,19,19.30
2010,08,29,17,20,24.20
2010,08,29,17,21,24.20
2010,08,29,17,22,29.00
2010,08,29,17,23,27.40
2010,08,29,17,24,20.90
2010,08,29,17,25,16.10
2010,08,29,17,26,19.30
2010,08,29,17,27,19.30
2010,08,29,17,28,16.10
2010,08,29,17,29,19.30
2010,08,29,17,30,17.70
2010,08,29,17,31,19.30
2010,08,29,17,32,16.10
2010,08,29,17,33,16.10
2010,08,29,17,34,19.30
2010,08,29,17,35,14.50
2010,08,29,17,36,16.10
2010,08,29,17,37,19.30
2010,08,29,17,38,17.70
2010,08,29,17,39,11.30
2010,08,29,17,40,14.50
2010,08,29,17,41,16.10
2010,08,29,17,42,8.10
2010,08,29,17,43,16.10
2010,08,29,17,44,8.10
2010,08,29,17,45,9.60
2010,08,29,17,46,8.10
2010,08,29,17,47,14.50
2010,08,29,17,48,8.10
2010,08,29,17,49,17.70
2010,08,29,17,50,16.10
2010,08,29,17,51,14.50
2010,08,29,17,52,9.60
2010,08,29,17,53,12.90
2010,08,29,17,54,11.30
2010,08,29,17,55,16.10
2010,08,29,17,56,17.70
2010,08,29,17,57,8.10
2010,08,29,17,58,9.60
2010,08,29,17,59,14.50
2010,08,29,18,00,17.70
2010,08,29,18,01,20.90
2010,08,29,18,02,14.50
2010,08,29,18,03,8.10
2010,08,29,18,04,8.10
2010,08,29,18,05,8.10
2010,08,29,18,06,14.50
2010,08,29,18,07,6.40
2010,08,29,18,08,16.10
2010,08,29,18,09,19.30
2010,08,29,18,10,14.50
2010,08,29,18,11,14.50
2010,08,29,18,12,3.20
2010,08,29,18,13,4.80
2010,08,29,18,14,8.10
2010,08,29,18,15,6.40
2010,08,29,18,16,9.60
2010,08,29,18,17,17.70
2010,08,29,18,18,16.10
2010,08,29,18,19,17.70
2010,08,29,18,20,14.50
2010,08,29,18,21,8.10
2010,08,29,18,22,9.60
2010,08,29,18,23,6.40
2010,08,29,18,24,9.60
2010,08,29,18,25,9.60
2010,08,29,18,26,11.30
2010,08,29,18,27,16.10
2010,08,29,18,28,19.30
2010,08,29,18,29,14.50
2010,08,29,18,30,14.50
2010,08,29,18,31,16.10
2010,08,29,18,32,16.10
2010,08,29,18,33,8.10
2010,08,29,18,34,8.10
2010,08,29,18,35,9.60
2010,08,29,18,36,11.30
2010,08,29,18,37,11.30
2010,08,29,18,38,14.50
2010,08,29,18,39,17.70
2010,08,29,18,40,12.90
2010,08,29,18,41,8.10
2010,08,29,18,42,8.10
2010,08,29,18,43,4.80
2010,08,29,18,44,11.30
2010,08,29,18,45,16.10
2010,08,29,18,46,16.10
2010,08,29,18,47,8.10
2010,08,29,18,48,9.60
2010,08,29,18,49,6.40
2010,08,29,18,50,6.40
2010,08,29,18,51,8.10
2010,08,29,18,52,8.10
2010,08,29,18,53,8.10
2010,08,29,18,54,3.20
2010,08,29,18,55,6.40
2010,08,29,18,56,4.80
2010,08,29,18,57,11.30
2010,08,29,18,58,9.60
2010,08,29,18,59,9.60
2010,08,29,19,00,9.60
2010,08,29,19,01,11.30
2010,08,29,19,02,6.40
2010,08,29,19,03,6.40
2010,08,29,19,04,11.30
2010,08,29,19,05,6.40
2010,08,29,19,06,19.30
2010,08,29,19,07,11.30
2010,08,29,19,08,4.80
2010,08,29,19,09,3.20
2010,08,29,19,10,4.80
2010,08,29,19,11,11.30
2010,08,29,19,12,4.80
2010,08,29,19,13,8.10
2010,08,29,19,14,8.10
2010,08,29,19,15,8.10
2010,08,29,19,16,8.10
2010,08,29,19,17,3.20
2010,08,29,19,18,6.40
2010,08,29,19,19,6.40
2010,08,29,19,20,9.60
2010,08,29,19,21,8.10
2010,08,29,19,22,9.60
2010,08,29,19,23,8.10
2010,08,29,19,24,9.60
2010,08,29,19,25,6.40
2010,08,29,19,26,4.80
2010,08,29,19,27,6.40
2010,08,29,19,28,6.40
2010,08,29,19,29,8.10
2010,08,29,19,30,6.40
2010,08,29,19,31,8.10
2010,08,29,19,32,9.60
2010,08,29,19,33,6.40
2010,08,29,19,34,8.10
2010,08,29,19,35,4.80
2010,08,29,19,36,6.40
2010,08,29,19,37,6.40
2010,08,29,19,38,6.40
2010,08,29,19,39,4.80
2010,08,29,19,40,8.10
2010,08,29,19,41,6.40
2010,08,29,19,42,9.60
2010,08,29,19,43,1.60
2010,08,29,19,44,3.20
2010,08,29,19,45,1.60
2010,08,29,19,46,9.60
2010,08,29,19,47,8.10
2010,08,29,19,48,12.90
2010,08,29,19,49,3.20
2010,08,29,19,50,8.10
2010,08,29,19,51,6.40
2010,08,29,19,52,4.80
2010,08,29,19,53,6.40
2010,08,29,19,54,11.30
2010,08,29,19,55,9.60
2010,08,29,19,56,11.30
2010,08,29,19,57,1.60
2010,08,29,19,58,6.40
2010,08,29,19,59,4.80
2010,08,29,20,00,6.40
2010,08,29,20,01,4.80
2010,08,29,20,02,8.10
2010,08,29,20,03,4.80
2010,08,29,20,04,4.80
2010,08,29,20,05,6.40
2010,08,29,20,06,6.40
2010,08,29,20,07,3.20
2010,08,29,20,08,8.10
2010,08,29,20,09,8.10
2010,08,29,20,10,6.40
2010,08,29,20,11,6.40
2010,08,29,20,12,8.10
2010,08,29,20,13,3.20
2010,08,29,20,14,3.20
2010,08,29,20,15,6.40
2010,08,29,20,16,9.60
2010,08,29,20,17,6.40
2010,08,29,20,18,6.40
2010,08,29,20,19,4.80
2010,08,29,20,20,1.60
2010,08,29,20,21,6.40
2010,08,29,20,22,4.80
2010,08,29,20,23,4.80
2010,08,29,20,24,4.80
2010,08,29,20,25,6.40
2010,08,29,20,26,4.80
2010,08,29,20,27,4.80
2010,08,29,20,28,6.40
2010,08,29,20,29,8.10
2010,08,29,20,30,6.40
2010,08,29,20,31,4.80
2010,08,29,20,32,3.20
2010,08,29,20,33,4.80
2010,08,29,20,34,6.40
2010,08,29,20,35,4.80
2010,08,29,20,36,4.80